STARLINK-32579, 61922

Orbit data source: Space-Track

STARLINK-32579, 61922 is a payload satellite owned by SpaceX/Seattle (US) in LEO that was launched on Mon, 11 Nov 2024 UTC via an FALCON 9 launch vehicle from the Air Force Eastern Test Range (AFETR). Payloads include a variety of satellites, spacecraft, and rockets equipped with specific instruments for various scientific and technological missions. These include communications satellites like Starlink; space stations such as the ISS; scientific satellites like the Hubble; Earth observation satellites from companies like Planet Labs, Umbra, and HawkEye 360; GPS; miniature CubeSats for education and research; and military/defense satellites.

Loading next visibility...
STARLINK-32579 details
Identifier
61922, 2024-207L
Orbit
LEO
Last TLE update9 hours ago
Origin
Flag of USSpaceX/Seattle (US)
ManufacturerSpaceX/Seattle
MissionOperational spacecraft
Bus & MotorSTARLINK V2M, Unknown motor
Mass730 kg wet, ~700 kg dry
Launch date (UTC)
2024-11-11 (1 week ago)
Launch vehicle
FALCON 9
Launch site
Air Force Eastern Test Range (AFETR)
Object type
Payload
Rocket body
Debris
Shape & HBRUnknown
Radar Cross SectionRCS unknown

Expand to show TLE details & history

TLE from 9 hours ago
0 STARLINK-32579
1 61922U 24207L   24325.91668981 -.00708346  00000-0 -23724-2 0  9999
2 61922  43.0026  94.4772 0001913 284.3169 238.2526 15.90711304  2558
Epoch: 2024-11-20T22:00Z
Definitive object data (Epoch: 2024-11-20T22:00:01.999Z)
Latitude11.8155°
Longitude-128.82486°
Altitude299.965 km
Speed7.73 km/s
True Right ascension17h 26m 21s
True Declination11° 44' 31"
Sunlit
Object was in daylight at TLE epoch
Visualization TLE readout
Latitude24.82502°
Longitude-147.80642°
Altitude302.841 km
Speed7.73 km/s
Apparent Right ascension16h 05m 49s
Apparent Declination-6° 40' 15"
Sunlit
Object is in daylight
Visualization observer readout
Local Sidereal Time04:00:06
Azimuth357.414° N
Elevation-56.73°
Doppler factor1
Orbital elements
Apogee altitude303.567 km
Perigee altitude301.011 km
Semi-major axis6,680.426 km
Eccentricity0.0001913
Inclination43.0026°
RAAN94.4772°
Arg. of periapsis284.3169°
True anomaly238.23396°
Mean anomaly238.2526°
Eccentric anomaly238.24328°
Mean motion3.975 °/min
BSTAR-0.0023724
Orbital period90.57 mins
Loading maneuver chart data...
Loading historical data...
Loading historical data...
Loading historical data...
Loading historical data...
Loading historical data...
Loading historical data...
Loading historical data...

STARLINK-32579 Visibility forecast

Observer location: undefined°, undefined

Span
Click to sort rows by Start time (UTC) header in descending order
Start Az.
Max El. time (UTC)
Max El. Az.
Max El.
End time (UTC)
End Az.
4 mins2024-11-21 12:37:29.194Z230.542° WSW2024-11-21 12:39:29.194Z172.649° S36.374°2024-11-21 12:41:29.194Z83.967° E
|